Farmingdale, NY

1:11 AM EDT on March 27, 2017 (GMT -0400)
Republic

Weather History for KFRG - September, 2012

Change the Weather History Date:

Thursday, September 27, 2012

  Actual Average Record
Temperature  
Mean Temperature 68 °F -  
Max Temperature 73 °F 68 °F 87 °F (1998)
Min Temperature 64 °F 52 °F 45 °F (2000)
Cooling Degree Days 4    
Growing Degree Days 18 (Base 50)    
Moisture  
Dew Point 62 °F    
Average Humidity 83    
Maximum Humidity 93    
Minimum Humidity 61    
Precipitation  
Precipitation 0.01 in - - ()
Sea Level Pressure  
Sea Level Pressure 30.13 in    
Wind  
Wind Speed 5 mph (SSW)    
Max Wind Speed 10 mph    
Max Gust Speed -    
Visibility 9 miles    
Events Rain    
Averages and records for this station are not official NWS values.
T = Trace of Precipitation, MM = Missing Value Source: NWS Daily Summary

Daily Weather History Graph

Daily Weather History Graph

Search for Another Location

Airport or City:

Trip Planner

Search our weather history database for the weather conditions in past years. The results will help you decide how hot, cold, wet, or windy it might be!

Date:

Astronomy

Sep. 27, 2012 Rise Set
Actual Time 6:46 AM EDT 6:41 PM EDT
Civil Twilight 6:19 AM EDT 7:08 PM EDT
Nautical Twilight 5:47 AM EDT 7:40 PM EDT
Astronomical Twilight 5:15 AM EDT 8:12 PM EDT
Moon 5:12 PM EDT 4:12 AM EDT
Length of Visible Light 12h 49m
Length of Day
11h 55m
Waxing Gibbous, 94% of the Moon is Illuminated
Sep 27
Waxing Gibbous
Sep 29
Full
Oct 8
Last Quarter
Oct 15
New
Oct 21
First Quarter

Hourly Weather History & Observations

Time (EDT) Temp. Dew Point Humidity Pressure Visibility Wind Dir Wind Speed Gust Speed Precip Events Conditions
12:53 AM 66.0 °F 64.0 °F 93% 30.06 in 8.0 mi SW 4.6 mph - N/A   Overcast
1:53 AM 64.9 °F 63.0 °F 93% 30.06 in 8.0 mi Calm Calm - N/A   Clear
2:53 AM 66.0 °F 63.0 °F 90% 30.06 in 9.0 mi West 4.6 mph - N/A   Overcast
3:53 AM 66.0 °F 63.0 °F 90% 30.05 in 9.0 mi West 3.5 mph - N/A   Scattered Clouds
4:53 AM 64.9 °F 63.0 °F 93% 30.07 in 9.0 mi West 4.6 mph - N/A   Mostly Cloudy
5:53 AM 64.9 °F 63.0 °F 93% 30.11 in 10.0 mi WNW 4.6 mph - 0.00 in Rain Light Rain
6:53 AM 64.9 °F 62.1 °F 90% 30.13 in 10.0 mi WNW 3.5 mph - 0.01 in   Mostly Cloudy
7:53 AM 64.9 °F 63.0 °F 93% 30.15 in 10.0 mi WSW 6.9 mph - 0.00 in   Overcast
8:53 AM 66.0 °F 63.0 °F 90% 30.16 in 10.0 mi WSW 5.8 mph - 0.00 in   Overcast
9:53 AM 66.9 °F 63.0 °F 87% 30.12 in 9.0 mi NE 4.6 mph - N/A   Scattered Clouds
10:53 AM 68.0 °F 62.1 °F 81% 30.15 in 10.0 mi NNW 8.1 mph - N/A   Mostly Cloudy
11:53 AM 71.1 °F 62.1 °F 73% 30.15 in 10.0 mi NE 8.1 mph - N/A   Partly Cloudy
12:53 PM 73.0 °F 60.1 °F 64% 30.14 in 10.0 mi ENE 8.1 mph - N/A   Partly Cloudy
1:25 PM 73.4 °F 59.0 °F 61% 30.14 in 10.0 mi NNE 5.8 mph - N/A   Mostly Cloudy
1:53 PM 73.0 °F 60.1 °F 64% 30.13 in 10.0 mi NNE 4.6 mph - N/A   Overcast
2:15 PM 69.8 °F 62.6 °F 78% 30.14 in 10.0 mi South 8.1 mph - N/A   Overcast
2:53 PM 71.1 °F 63.0 °F 75% 30.14 in 10.0 mi South 10.4 mph - N/A   Mostly Cloudy
3:53 PM 71.1 °F 61.0 °F 70% 30.12 in 10.0 mi South 8.1 mph - N/A   Mostly Cloudy
4:53 PM 70.0 °F 60.1 °F 71% 30.14 in 10.0 mi South 6.9 mph - N/A   Mostly Cloudy
5:53 PM 68.0 °F 60.1 °F 76% 30.14 in 10.0 mi South 4.6 mph - N/A   Clear
6:53 PM 66.0 °F 61.0 °F 84% 30.15 in 10.0 mi SSE 4.6 mph - N/A   Clear
7:53 PM 66.0 °F 61.0 °F 84% 30.15 in 7.0 mi SE 3.5 mph - N/A   Clear
8:53 PM 64.9 °F 62.1 °F 90% 30.16 in 7.0 mi ESE 4.6 mph - N/A   Scattered Clouds
9:53 PM 64.9 °F 62.1 °F 90% 30.17 in 7.0 mi ESE 3.5 mph - N/A   Scattered Clouds
10:53 PM 64.9 °F 62.1 °F 90% 30.17 in 7.0 mi East 3.5 mph - N/A   Mostly Cloudy
11:53 PM 64.0 °F 62.1 °F 93% 30.17 in 7.0 mi Calm Calm - N/A   Overcast